Wind_Speed
81 84 86 90 87 84 72 62 60 47 46 55 73 108 114 109 104 106 95 94 86 79 76 74 68 72 69 69 62 66 59 59 51 49 44 42 41 35 31 31 31 26 25 26 25
85 86 88 89 86 79 74 66 61 60 52 60 73 102 120 120 109 106 103 98 88 88 72 77 72 72 66 72 66 64 58 57 54 52 53 48 44 40 34 33 33 29 27 26 26
88 84 88 89 88 81 73 70 67 67 65 61 74 95 128 126 121 107 114 101 96 88 89 82 76 73 72 71 70 60 55 59 57 55 53 52 48 44 39 35 35 31 29 25 25
90 90 89 96 88 82 76 73 75 71 70 70 77 92 131 136 125 117 115 110 103 93 89 86 83 80 76 73 74 68 62 58 59 57 55 48 49 49 41 40 36 34 30 27 27
91 91 93 89 87 83 78 78 73 64 63 69 73 88 115 142 124 117 113 114 107 97 89 85 82 85 79 76 78 71 66 63 60 56 54 50 48 49 44 43 41 38 34 34 30
92 94 93 92 87 85 78 76 65 54 52 59 68 83 96 132 129 124 114 114 110 105 92 91 85 84 84 77 75 73 69 66 63 58 55 54 52 48 49 45 45 43 39 39 34
95 93 90 87 86 81 77 69 53 44 44 51 61 77 86 128 134 128 121 108 108 107 100 88 92 79 81 79 77 76 75 73 66 64 60 55 49 49 49 50 48 44 38 40 38
89 92 91 80 82 77 75 61 45 36 37 46 56 70 88 123 141 129 121 114 110 107 105 90 89 97 94 83 76 79 78 76 70 68 65 56 49 49 47 46 46 43 38 40 38
93 92 88 81 78 74 68 57 39 29 33 42 52 65 95 115 145 131 120 119 113 110 107 96 91 86 86 89 84 75 78 78 74 69 65 59 58 50 48 47 44 44 43 42 43
94 92 86 78 73 69 62 51 34 23 30 41 50 70 94 114 145 133 122 118 113 112 104 104 86 77 89 96 88 70 73 80 76 69 63 62 61 56 55 52 52 50 48 47 47
92 94 85 77 67 67 57 42 27 20 30 43 57 83 90 111 145 133 124 120 121 116 107 101 92 91 83 80 89 83 71 65 72 70 68 63 62 60 59 55 52 51 51 50 48
92 92 84 74 63 61 53 35 21 18 32 47 67 86 96 110 138 136 127 123 116 120 111 94 95 86 82 84 87 88 82 70 66 71 68 66 62 60 60 55 54 54 51 50 49
95 96 81 71 59 55 47 30 18 18 34 50 71 88 93 110 136 132 127 120 116 116 111 98 82 93 83 95 87 83 89 79 72 70 69 65 60 60 57 55 55 54 55 54 50
93 88 77 69 58 53 44 26 16 19 35 51 70 84 91 112 138 138 131 124 118 108 102 106 93 77 86 82 93 90 82 86 86 74 71 68 65 66 62 62 57 54 50 48 50
89 85 72 64 54 49 40 22 16 22 32 50 63 78 91 119 134 138 131 126 116 115 101 96 90 87 81 77 74 85 89 87 84 81 73 69 68 60 64 57 59 58 55 55 51
80 79 65 61 54 47 37 21 19 27 40 50 60 76 91 120 131 135 131 128 113 112 110 103 97 94 88 86 84 85 87 86 83 81 77 69 69 69 65 57 58 63 63 57 55
78 73 58 52 50 43 33 18 21 30 39 47 52 65 93 121 132 128 124 125 116 109 115 110 101 101 96 94 93 93 85 92 92 84 72 74 76 63 65 64 65 67 66 64 60
78 69 57 45 45 38 31 17 20 32 41 46 50 60 98 124 122 122 124 126 122 111 107 111 108 106 95 94 95 91 83 81 86 86 75 73 76 65 68 69 70 68 66 67 66
75 64 56 43 40 35 29 18 17 33 45 55 56 62 97 126 120 120 125 122 121 114 109 108 105 100 99 93 85 91 91 87 83 84 83 73 67 67 65 68 69 72 71 71 69
68 57 53 41 34 33 28 21 14 31 45 52 55 63 91 128 119 118 123 120 113 121 116 108 103 102 96 99 93 94 92 92 90 88 84 78 79 74 70 67 68 70 72 72 71
55 53 49 39 34 31 23 21 15 27 41 50 53 62 92 131 123 119 123 114 114 119 112 113 109 106 100 99 94 96 94 92 91 89 83 81 79 75 71 70 69 72 72 73 74
48 49 46 39 31 31 24 19 16 22 38 46 53 67 89 129 128 122 117 116 115 110 108 109 102 100 103 96 100 96 91 89 93 86 83 80 78 76 71 72 74 77 78 76 74
44 42 42 40 27 25 22 19 14 21 33 47 53 67 83 126 126 123 120 121 120 111 111 105 108 104 104 101 93 96 96 94 90 90 86 87 82 81 75 73 75 79 80 77 75
37 37 38 37 28 18 22 14 15 19 30 47 56 64 78 121 130 124 126 128 121 117 103 106 97 96 108 107 108 100 91 90 89 87 84 79 77 79 78 81 83 82 85 79 81
33 34 35 34 32 20 14 17 14 17 28 43 58 65 85 117 132 125 127 121 110 120 118 110 108 95 92 106 99 103 108 98 90 90 90 91 86 83 84 82 80 75 79 86 87
33 32 31 31 29 22 15 15 15 15 27 39 56 67 83 100 137 135 123 122 123 114 116 113 99 110 95 96 95 96 92 95 100 102 98 97 91 94 91 91 89 86 85 83 84
34 28 27 28 27 22 15 10 13 12 23 36 50 68 80 87 117 135 131 124 121 121 113 113 108 108 108 90 101 94 91 89 91 91 94 97 101 104 100 99 99 95 92 90 89
Wind_Direction
314 316 315 315 315 313 310 301 294 279 253 228 215 207 204 199 201 206 200 199 201 198 199 200 208 215 213 211 213 213 215 220 220 221 220 218 219 223 226 231 230 235 240 231 238
313 314 314 315 315 314 308 303 294 285 266 231 219 210 206 201 200 205 203 202 200 201 195 204 205 212 211 209 210 209 214 219 221 225 220 219 218 221 229 229 229 236 235 233 240
311 313 315 315 315 310 305 298 290 282 270 245 223 214 206 202 201 198 204 201 198 200 203 203 207 207 213 211 208 210 215 220 221 219 221 222 223 222 228 231 235 235 236 241 252
311 310 311 313 315 310 303 294 288 278 265 252 229 215 206 201 204 201 202 204 203 201 204 206 208 211 211 211 211 212 216 218 216 218 219 223 226 226 226 232 235 238 244 244 253
309 311 314 317 317 311 303 297 290 279 260 245 233 219 211 202 201 202 203 206 205 200 199 204 206 212 209 212 213 216 217 219 217 218 222 224 227 225 230 232 236 237 241 249 255
309 313 311 314 318 311 304 302 294 281 259 240 230 220 212 203 199 201 202 204 205 201 201 205 208 210 214 210 214 216 214 218 220 221 224 226 226 230 234 235 237 240 242 245 249
309 313 314 318 319 312 309 305 298 281 257 235 224 215 206 202 198 200 203 201 202 206 205 206 209 207 209 208 210 216 219 222 223 225 225 229 232 232 236 237 239 241 236 243 244
314 317 317 322 321 313 314 309 302 278 251 230 217 210 198 200 196 199 200 200 198 205 205 204 208 214 214 208 209 216 221 221 223 226 228 228 227 228 231 233 235 236 237 242 245
315 318 320 324 322 318 317 314 302 272 240 221 208 200 196 197 194 195 198 200 201 203 205 202 207 210 213 211 212 213 219 222 225 227 228 228 229 231 233 233 235 237 241 245 249
316 321 323 325 324 321 319 314 300 266 226 207 197 193 195 194 193 195 197 197 196 198 202 204 200 206 211 215 213 215 224 225 229 229 230 227 230 233 235 236 239 243 248 247 248
317 323 325 327 327 326 323 315 298 255 215 192 186 189 196 195 192 193 195 195 201 201 200 204 202 207 213 213 213 218 212 219 228 229 228 227 231 233 236 240 242 244 246 247 251
319 325 329 327 329 328 325 317 294 246 211 193 184 190 192 192 194 192 194 195 197 201 200 200 203 208 207 209 215 217 217 218 216 226 227 227 232 237 237 236 240 247 252 256 257
316 324 332 328 330 331 327 316 291 230 206 194 187 192 191 191 192 192 193 196 195 197 201 200 203 210 209 211 216 215 217 216 219 222 224 227 229 228 241 240 243 249 250 252 253
322 324 332 329 333 333 331 316 273 221 212 197 192 194 191 188 192 193 195 197 194 195 199 205 205 203 212 216 218 216 217 220 221 223 226 227 227 225 234 244 250 255 253 250 252
322 325 332 330 334 332 335 311 253 213 213 203 197 195 192 190 189 195 196 198 197 198 197 199 202 205 198 204 214 217 218 218 222 224 226 225 228 229 236 238 243 248 247 252 254
323 326 331 332 333 332 334 305 242 209 211 210 202 196 193 191 189 194 198 200 195 193 199 200 201 206 203 208 212 216 217 221 220 223 225 225 229 232 237 232 236 240 243 249 253
323 326 330 333 329 331 332 306 243 215 209 213 208 198 192 191 190 192 196 200 196 195 200 201 206 210 211 213 217 220 223 225 224 226 226 231 234 235 240 240 245 247 247 250 252
324 324 328 334 329 331 333 311 245 221 210 213 208 197 193 188 189 193 195 197 198 198 205 205 209 213 210 215 219 222 218 221 229 234 230 234 238 237 241 241 244 246 247 251 253
322 321 325 333 331 327 330 317 238 220 210 210 209 193 193 188 188 193 195 195 198 202 206 207 209 210 212 213 214 217 220 220 223 228 230 228 231 231 236 241 243 245 246 248 251
317 319 323 332 329 325 329 319 245 217 213 208 206 195 193 190 193 195 197 198 202 203 209 208 209 212 213 215 218 220 220 221 227 232 233 230 235 237 236 238 241 243 242 246 250
315 318 322 329 328 326 329 320 261 217 211 209 204 198 195 192 194 197 197 198 202 204 209 210 212 216 217 217 219 224 225 228 232 234 232 233 234 236 236 237 239 238 243 246 251
312 314 320 326 332 322 328 325 272 221 210 207 201 199 196 195 196 199 198 199 201 202 208 210 211 214 217 218 222 223 225 226 229 231 233 236 236 234 234 233 236 236 240 248 252
308 311 319 319 329 320 322 323 284 230 206 203 201 200 197 196 198 200 199 199 202 203 206 210 213 216 218 219 220 221 222 227 228 230 235 237 234 232 236 239 239 237 243 247 252
303 310 316 315 323 316 315 323 301 236 211 203 199 201 198 197 200 201 201 203 205 204 208 212 213 217 220 223 222 222 222 224 223 226 229 235 238 241 239 240 240 243 243 247 249
300 307 314 317 317 312 317 314 319 251 220 207 202 196 198 198 199 200 203 205 202 208 213 215 217 216 218 220 223 226 226 224 226 228 232 234 234 235 232 234 237 242 244 246 249
305 308 310 315 311 309 313 320 316 267 223 214 205 200 197 201 202 203 205 205 210 207 212 218 215 221 222 221 223 227 229 230 233 235 235 236 234 235 236 236 236 240 243 246 250
298 300 309 316 306 302 295 307 306 292 237 216 210 204 198 200 204 206 205 207 210 209 209 217 217 220 223 224 227 225 225 228 229 231 230 232 234 236 235 236 237 240 244 248 252
Height
10621 10613 10606 10599 10591 10582 10577 10573 10568 10575 10577 10577 10580 10590 10600 10613 10624 10642 10666 10672 10675 10687 10699 10710 10722 10731 10743 10754 10763 10771 10780 10785 10794 10800 10804 10810 10815 10820 10824 10827 10831 10834 10837 10838 10840
10607 10600 10590 10583 10575 10566 10558 10549 10544 10543 10553 10557 10558 10564 10577 10591 10608 10630 10648 10653 10667 10679 10688 10700 10714 10721 10734 10744 10755 10766 10772 10777 10784 10790 10797 10804 10809 10816 10819 10822 10826 10830 10832 10833 10835
10592 10585 10576 10567 10556 10545 10536 10528 10521 10517 10519 10529 10532 10539 10552 10568 10588 10620 10627 10640 10657 10666 10676 10691 10700 10711 10722 10734 10748 10758 10763 10766 10775 10782 10790 10798 10804 10809 10813 10817 10821 10824 10827 10829 10831
10577 10568 10558 10549 10535 10523 10510 10500 10492 10488 10485 10490 10502 10510 10520 10539 10576 10595 10608 10626 10643 10654 10667 10680 10689 10698 10713 10727 10737 10748 10751 10759 10767 10775 10784 10790 10797 10802 10808 10811 10815 10819 10821 10823 10826
10560 10551 10540 10527 10513 10498 10482 10468 10459 10453 10447 10451 10464 10479 10490 10522 10567 10580 10591 10609 10628 10642 10658 10669 10680 10690 10706 10717 10726 10736 10743 10751 10759 10767 10775 10784 10789 10796 10802 10806 10809 10812 10815 10817 10821
10545 10534 10522 10505 10489 10470 10453 10437 10426 10417 10413 10418 10429 10442 10469 10516 10541 10564 10573 10594 10614 10630 10648 10661 10672 10684 10694 10708 10718 10727 10734 10741 10751 10759 10767 10775 10782 10791 10795 10798 10801 10805 10808 10811 10814
10529 10517 10502 10486 10468 10445 10427 10410 10398 10390 10388 10392 10402 10420 10454 10501 10521 10544 10562 10585 10603 10622 10640 10653 10661 10670 10686 10698 10708 10718 10724 10732 10742 10750 10758 10766 10778 10783 10787 10793 10795 10798 10801 10804 10808
10513 10499 10481 10466 10447 10424 10406 10387 10378 10370 10368 10374 10387 10410 10447 10465 10503 10530 10551 10573 10590 10606 10626 10639 10649 10662 10674 10689 10699 10708 10713 10725 10736 10742 10750 10762 10768 10771 10777 10782 10786 10791 10794 10798 10801
10499 10481 10464 10449 10429 10406 10388 10372 10363 10355 10356 10362 10377 10403 10422 10450 10490 10514 10537 10562 10578 10599 10615 10627 10638 10650 10663 10677 10686 10697 10708 10719 10728 10736 10744 10755 10756 10764 10769 10774 10779 10782 10786 10791 10793
10485 10465 10449 10432 10414 10394 10375 10360 10352 10349 10350 10357 10374 10394 10414 10438 10479 10506 10528 10549 10566 10581 10600 10610 10625 10634 10649 10661 10686 10702 10703 10714 10721 10729 10736 10745 10746 10754 10759 10765 10770 10775 10780 10783 10785
10469 10450 10435 10418 10401 10382 10366 10351 10346 10344 10347 10354 10374 10385 10414 10438 10470 10494 10516 10533 10551 10569 10584 10599 10614 10628 10650 10664 10675 10684 10694 10702 10710 10720 10727 10733 10736 10745 10751 10756 10763 10767 10770 10775 10780
10456 10438 10422 10407 10392 10377 10358 10346 10342 10342 10347 10356 10366 10382 10402 10428 10465 10483 10502 10525 10542 10559 10579 10591 10612 10623 10637 10647 10661 10673 10687 10696 10700 10708 10717 10724 10728 10735 10742 10748 10753 10759 10765 10768 10773
10444 10427 10411 10395 10383 10370 10353 10343 10340 10342 10348 10357 10365 10377 10400 10424 10454 10481 10500 10520 10532 10550 10572 10589 10603 10613 10625 10638 10650 10664 10679 10688 10694 10699 10707 10713 10720 10729 10732 10740 10748 10754 10757 10760 10762
10433 10416 10401 10384 10375 10364 10349 10341 10339 10341 10349 10358 10368 10379 10399 10420 10440 10461 10485 10505 10524 10548 10564 10576 10592 10606 10617 10628 10642 10655 10666 10674 10681 10687 10697 10700 10714 10721 10727 10731 10738 10743 10746 10748 10752
10425 10408 10395 10377 10370 10358 10348 10342 10341 10343 10350 10362 10370 10378 10395 10412 10440 10457 10479 10503 10523 10542 10555 10572 10585 10595 10607 10621 10629 10645 10656 10663 10668 10675 10684 10692 10702 10714 10720 10729 10733 10734 10735 10737 10740
10415 10401 10391 10370 10362 10353 10348 10340 10340 10343 10347 10357 10367 10380 10395 10414 10434 10452 10473 10497 10516 10533 10547 10561 10575 10583 10598 10608 10615 10631 10641 10648 10656 10662 10672 10690 10698 10703 10715 10722 10721 10723 10726 10728 10731
10405 10392 10387 10372 10358 10349 10345 10341 10339 10342 10347 10355 10367 10381 10393 10413 10429 10455 10474 10495 10508 10523 10532 10547 10560 10573 10584 10596 10604 10619 10629 10636 10642 10653 10680 10678 10688 10708 10706 10710 10711 10714 10715 10717 10722
10396 10383 10377 10370 10355 10348 10340 10339 10338 10339 10346 10355 10367 10383 10396 10409 10435 10448 10463 10483 10501 10519 10528 10539 10548 10562 10577 10589 10603 10614 10621 10629 10642 10657 10669 10667 10682 10697 10690 10698 10699 10702 10704 10706 10709
10387 10376 10370 10363 10353 10346 10339 10336 10336 10337 10342 10352 10364 10382 10400 10418 10432 10445 10460 10480 10496 10512 10516 10523 10543 10558 10567 10583 10589 10600 10612 10620 10629 10640 10650 10665 10671 10680 10682 10686 10690 10689 10690 10693 10696
10378 10369 10362 10356 10350 10341 10335 10331 10333 10333 10339 10348 10360 10378 10394 10416 10429 10442 10457 10473 10486 10501 10504 10522 10536 10547 10558 10571 10576 10589 10597 10605 10617 10631 10644 10658 10660 10669 10671 10674 10673 10675 10676 10679 10684
10369 10361 10356 10350 10342 10337 10331 10327 10328 10330 10334 10344 10357 10375 10389 10405 10421 10433 10450 10466 10479 10494 10498 10513 10525 10537 10545 10557 10569 10578 10592 10603 10612 10620 10632 10639 10649 10655 10658 10656 10660 10660 10661 10668 10671
10362 10354 10348 10343 10338 10331 10327 10323 10322 10326 10330 10338 10352 10367 10382 10401 10412 10426 10446 10458 10470 10480 10489 10501 10511 10523 10536 10545 10556 10564 10578 10588 10593 10607 10616 10625 10634 10638 10641 10645 10646 10648 10649 10653 10657
10354 10348 10343 10337 10334 10327 10323 10320 10318 10319 10324 10331 10343 10360 10372 10391 10405 10419 10434 10449 10459 10466 10476 10486 10497 10508 10518 10530 10541 10558 10569 10575 10583 10591 10604 10613 10623 10622 10624 10630 10634 10635 10638 10640 10643
10346 10340 10336 10330 10328 10326 10317 10315 10312 10313 10318 10324 10333 10347 10365 10381 10394 10408 10421 10431 10441 10456 10464 10473 10484 10496 10508 10518 10526 10542 10551 10558 10567 10580 10595 10603 10601 10607 10612 10616 10618 10621 10623 10624 10626
10339 10334 10328 10324 10319 10319 10315 10309 10309 10308 10311 10317 10325 10335 10353 10368 10380 10394 10410 10422 10434 10445 10454 10460 10473 10482 10491 10504 10513 10526 10537 10544 10559 10568 10575 10581 10587 10590 10597 10598 10601 10602 10608 10610 10614
10332 10328 10323 10319 10315 10312 10308 10305 10303 10303 10305 10309 10316 10324 10335 10350 10367 10378 10394 10410 10422 10432 10441 10451 10461 10472 10478 10488 10499 10509 10520 10531 10542 10550 10562 10569 10574 10577 10579 10585 10587 10588 10592 10599 10604
10323 10321 10316 10313 10309 10306 10305 10301 10299 10297 10297 10300 10306 10315 10324 10335 10351 10366 10380 10395 10404 10417 10428 10434 10446 10456 10464 10473 10485 10494 10506 10513 10520 10527 10536 10546 10545 10550 10561 10564 10569 10571 10580 10586 10589